Погода в Бронкхорсте

Нидерланды     52°04′32″N   6°10′49″E
темп.,
°C
ветер,
м/с
пор.,
м/с
влажн.,
%
обл.,
%
осадки,
мм/ч
давл.,
гПа
погр.,
м
17 мая, вт
вт1723:00+14зюз37854 0.0 1019109
02:00+13зюз4989100 0.0 1020176
05:00+14зюз368683 0.0 1020138
08:00+15зюз2480100 0.0 1020122
11:00+18зюз1274100 0.0 1022350
14:00+20ю336527 0.1 1021912
17:00+22ю33628 0.1 10201016
20:00+20вюв2373100 0.1 101960
18 мая, ср
ср1823:00+17вюв497362 0.0 1020185
02:00+15юв35795 0.0 102074
05:00+14ю339090 0.0 102056
08:00+18ююз34795 0.0 1021179
11:00+23ююз346457 0.0 1022802
14:00+26юз345540 0.1 10211768
17:00+25з236268 0.7 1020863
20:00+22ссз358098 1.9 1020125
19 мая, чт
чт1923:00+17ссв3594100 0.0 102089
02:00+17в2292100 0.0 101930
05:00+17ю41086100 0.0 1018163
08:00+19ю41083100 0.1 1018306
11:00+21ю2372100 0.0 1018387
14:00+24юз4664100 0.0 1018935
17:00+26юз4657100 0.1 10171493
20:00+20зсз689118 4.5 1018455
20 мая, пт
пт2023:00+15сз369785 0.0 1020290
02:00+14сз3389100 0.0 1021229
05:00+11з1195100 0.0 102111
08:00+14ю1187100 0.0 1021166
11:00+19ю1269100 0.0 1019573
14:00+16з4689100 2.6 1018328
17:00+16зсз348894 7.6 1017434
20:00+16з3681100 7.6 1018468
21 мая, сб
сб2123:00+12зюз389392 0.1 1018188
02:00+11юз512885 0.1 1018365
05:00+10зюз5128787 0.0 1018365
08:00+12зюз61285100 0.0 1018583
11:00+17зюз7106273 0.1 10181595
14:00+19з795063 0.1 10181863
17:00+19з675044 0.0 10181695
20:00+16зсз36675 0.0 1018207